カタログに戻る

SOLRAD 1

GREB

運用中科学LEO
NORAD 46·PAYLOAD·🇺🇸 United States

打ち上げ Jun 22, 1960 から Cape Canaveral Space Force Station

Loading…

次のパス (今後24時間)

TLE

最新Source: Space-Track

元期: Sep 9, 2026, 17:44 UTC

1 00046U 60007B   26252.73957441  .00000663  00000-0  13892-3 0  9991
2 00046  66.6903 357.6926 0200569 231.1602 127.1461 14.54971665469309

AllMySatでSOLRAD 1をリアルタイム追跡

Download on the App Store